This demonstration page uses our WeatherBlox Daily Observations layout. Learn more.

Left ArrowRight Arrow

40.92945, -100.16068

Hourly Observations for September 11, 2017

Temp ( °F °C ) Dew Point ( °F °C ) Humidity (%) Winds ( mph kmh ) Pressure ( in mb ) Visibility ( mi km ) Precip ( " mm )
12:15 am 00:15 Clear 70 21.2 53 11.5 54 54 S 12 19 30.00 1016 10 16 0.00 0.00
12:35 am 00:35 Clear 69 20.6 53 11.6 56 56 S 9 15 30.06 1018 10 16 0.00 0.00
12:55 am 00:55 Clear 68 19.8 53 11.6 59 59 S 9 15 30.03 1017 10 16 0.00 0.00
1:15 am 01:15 Clear 67 19.6 53 11.6 60 60 S 9 15 30.03 1017 10 16 0.00 0.00
1:35 am 01:35 Clear 67 19.2 53 11.5 61 61 SSE 9 15 30.03 1017 10 16 0.00 0.00
1:55 am 01:55 Clear 66 19 53 11.4 62 62 SSE 8 13 30.03 1017 10 16 0.00 0.00
2:15 am 02:15 Clear 66 19 52 11.3 61 61 SSE 8 13 30.03 1017 10 16 0.00 0.00
2:35 am 02:35 Clear 66 18.8 52 11.1 61 61 SE 3 6 30.03 1017 10 16 0.00 0.00
2:55 am 02:55 Clear 65 18.5 52 11 62 62 SSE 6 9 30.03 1017 10 16 0.00 0.00
3:15 am 03:15 Clear 65 18.5 52 11 62 62 SE 5 7 30.03 1017 10 16 0.00 0.00
3:35 am 03:35 Clear 65 18.3 51 10.7 61 61 SE 6 9 30.03 1017 10 16 0.00 0.00
3:55 am 03:55 Clear 64 18 51 10.8 63 63 SSE 9 15 30.03 1017 10 16 0.00 0.00
4:15 am 04:15 Clear 63 17.4 52 11 66 66 SSE 9 15 30.03 1017 10 16 0.00 0.00
4:35 am 04:35 Clear 64 17.5 51 10.8 65 65 SSE 8 13 30.03 1017 10 16 0.00 0.00
4:55 am 04:55 Clear 61 16.3 52 11 71 71 SE 3 6 30.06 1018 10 16 0.00 0.00
5:15 am 05:15 Clear 61 16 52 11 72 72 SE 7 11 30.06 1018 10 16 0.00 0.00
5:35 am 05:35 Clear 62 16.5 52 11 70 70 SE 6 9 30.06 1018 10 16 0.00 0.00
5:55 am 05:55 Clear 60 15.8 52 11 73 73 SSE 7 11 30.06 1018 10 16 0.00 0.00
6:15 am 06:15 Clear 60 15.3 52 11 76 76 SE 6 9 30.06 1018 10 16 0.00 0.00
6:35 am 06:35 Clear 60 15.3 51 10.8 75 75 SSE 7 11 30.06 1018 10 16 0.00 0.00
6:55 am 06:55 Clear 59 15 52 11 77 77 SE 5 7 30.06 1018 10 16 0.00 0.00
7:15 am 07:15 Clear 58 14.3 52 10.9 80 80 S 6 9 30.06 1018 10 16 0.00 0.00
7:35 am 07:35 Sunny 58 14.5 52 11 80 80 SSE 3 6 30.09 1019 10 16 0.00 0.00
7:55 am 07:55 Sunny 60 15.6 52 11.3 76 76 SSE 6 9 30.09 1019 10 16 0.00 0.00
8:15 am 08:15 Sunny 61 16.1 53 11.7 75 75 SSE 6 9 30.09 1019 10 16 0.00 0.00
8:35 am 08:35 Sunny 63 17.1 54 12 72 72 SSE 6 9 30.09 1019 10 16 0.00 0.00
8:55 am 08:55 Sunny 65 18.3 54 12.3 68 68 S 8 13 30.06 1018 10 16 0.00 0.00
9:15 am 09:15 Sunny 66 19 54 12.1 64 64 S 12 19 30.06 1018 10 16 0.00 0.00
9:35 am 09:35 Sunny 68 19.8 54 12.2 62 62 S 10 17 30.06 1018 10 16 0.00 0.00
9:55 am 09:55 Sunny 69 20.8 55 12.5 59 59 SSW 9 15 30.06 1018 10 16 0.00 0.00
10:15 am 10:15 Sunny 71 21.8 56 13.2 58 58 SSW 9 15 30.03 1017 10 16 0.00 0.00
10:35 am 10:35 Sunny 72 22.1 56 13.3 58 58 SSW 9 15 30.03 1017 10 16 0.00 0.00
10:55 am 10:55 Sunny 74 23.1 56 13.6 55 55 SSW 8 13 30.03 1017 10 16 0.00 0.00
11:15 am 11:15 Sunny 74 23.6 56 13.6 54 54 SW 7 11 30.03 1017 10 16 0.00 0.00
11:35 am 11:35 Sunny 76 24.3 57 14 53 53 SW 3 6 30.03 1017 10 16 0.00 0.00
11:55 am 11:55 Sunny 77 25 57 13.8 50 50 SSW 3 6 30.00 1016 10 16 0.00 0.00
12:15 pm 12:15 Sunny 78 25.6 58 14.2 49 49 SSE 5 7 30.00 1016 10 16 0.00 0.00
12:35 pm 12:35 Sunny 79 26.2 58 14.4 48 48 Calm 30.00 1016 10 16 0.00 0.00
12:55 pm 12:55 Sunny 80 26.7 58 14.2 46 46 E 3 6 30.00 1016 10 16 0.00 0.00
1:15 pm 13:15 Sunny 82 27.5 58 14.6 45 45 S 7 11 30.00 1016 10 16 0.00 0.00
1:35 pm 13:35 Sunny 82 28 59 14.8 45 45 SE 6 9 29.94 1014 10 16 0.00 0.00
1:55 pm 13:55 Sunny 83 28.5 58 14.6 43 43 SE 5 7 29.94 1014 10 16 0.00 0.00
2:15 pm 14:15 Sunny 84 29 59 15.1 43 43 SSE 9 15 29.94 1014 10 16 0.00 0.00
2:35 pm 14:35 Sunny 85 29.3 59 15.1 42 42 SE 8 13 29.94 1014 10 16 0.00 0.00
2:55 pm 14:55 Sunny 86 30 59 14.9 40 40 SE 8 13 29.94 1014 10 16 0.00 0.00
3:15 pm 15:15 Sunny 87 30.3 58 14.4 38 38 SE 13 20 29.94 1014 10 16 0.00 0.00
3:35 pm 15:35 Sunny 87 30.6 58 14.4 37 37 S 10 17 29.94 1014 10 16 0.00 0.00
3:55 pm 15:55 Sunny 87 30.7 58 14.2 37 37 SSE 12 19 29.94 1014 10 16 0.00 0.00
4:15 pm 16:15 Sunny 87 30.7 56 13.6 35 35 S 8 13 29.91 1013 10 16 0.00 0.00
4:35 pm 16:35 Sunny 88 31 57 14 35 35 SE 8 13 29.91 1013 10 16 0.00 0.00
4:55 pm 16:55 Sunny 88 30.9 57 13.9 35 35 SSE 9 15 29.91 1013 10 16 0.00 0.00
5:15 pm 17:15 Sunny 88 31 57 14.1 36 36 SSE 8 13 29.91 1013 10 16 0.00 0.00
5:35 pm 17:35 Sunny 87 30.7 56 13.6 35 35 SSE 10 17 29.91 1013 10 16 0.00 0.00
5:55 pm 17:55 Sunny 87 30.4 58 14.4 38 38 ESE 9 15 29.91 1013 10 16 0.00 0.00
6:15 pm 18:15 Sunny 85 29.7 59 14.9 41 41 ESE 8 13 29.91 1013 10 16 0.00 0.00
6:35 pm 18:35 Sunny 84 29.1 58 14.5 41 41 SE 9 15 29.91 1013 10 16 0.00 0.00
6:55 pm 18:55 Sunny 83 28.5 58 14.5 42 42 SE 8 13 29.88 1012 10 16 0.00 0.00
7:15 pm 19:15 Sunny 82 27.8 58 14.4 44 44 ESE 9 15 29.88 1012 10 16 0.00 0.00
7:35 pm 19:35 Sunny 80 26.6 58 14.6 48 48 ESE 7 11 29.91 1013 10 16 0.00 0.00
7:55 pm 19:55 Clear 78 25.7 59 15 52 52 ESE 7 11 29.91 1013 10 16 0.00 0.00
8:15 pm 20:15 Clear 77 25 60 15.3 55 55 ESE 8 13 29.94 1014 10 16 0.00 0.00
8:35 pm 20:35 Clear 76 24.5 60 15.4 57 57 SE 7 11 29.94 1014 10 16 0.00 0.00
8:55 pm 20:55 Clear 75 23.8 60 15.5 60 60 SE 8 13 29.97 1015 10 16 0.00 0.00
9:15 pm 21:15 Clear 74 23.2 60 15.7 63 63 SE 7 11 29.97 1015 10 16 0.00 0.00
9:35 pm 21:35 Clear 71 21.9 60 15.7 68 68 SSE 7 11 29.97 1015 10 16 0.00 0.00
9:55 pm 21:55 Clear 70 21.1 60 15.6 71 71 SSE 6 9 29.97 1015 10 16 0.00 0.00
10:15 pm 22:15 Clear 70 21 60 15.3 70 70 SE 6 9 30.00 1016 10 16 0.00 0.00
10:35 pm 22:35 Clear 71 21.5 58 14.7 65 65 SSE 7 11 30.00 1016 10 16 0.00 0.00
10:55 pm 22:55 Clear 69 20.8 58 14.2 66 66 SSE 8 13 30.00 1016 10 16 0.00 0.00
11:15 pm 23:15 Clear 68 19.9 56 13.6 67 67 SSE 6 9 30.03 1017 10 16 0.00 0.00
11:35 pm 23:35 Clear 66 19.1 56 13.3 69 69 SSE 7 11 30.03 1017 10 16 0.00 0.00
11:55 pm 23:55 Clear 67 19.4 55 12.8 66 66 SSE 7 11 30.03 1017 10 16 0.00 0.00

Powered by AerisWeather